User: anonymous   Login
Location: ??
(34.9170°N, 135.5016°E)
Time: 08:55:23
(UTC+00:00)
Language:

ISS - Orbit

View from above orbital plane
View from above orbital plane
View from above satellite
View from above satellite

Ground track
Ground track

The orbit data is extracted from the following two-line orbital elements,

1 25544U 98067A   21066.03203546  .00001486  00000-0  35088-4 0  9995
2 25544  51.6452 127.9902 0003346  77.5544 355.3812 15.49046672272768
Epoch (UTC): 07 March 2021 00:46:07
Eccentricity: 0.0003346
inclination: 51.6452°
perigee height: 417 km
apogee height: 422 km
right ascension of ascending node: 127.9902°
argument of perigee: 77.5544°
revolutions per day: 15.49046672
mean anomaly at epoch: 355.3812°
orbit number at epoch: 27276

The dashed part of the orbit path shows where the satellite is in the earth's shadow,  

DLR